Muskegon, MI

1:15 PM EDT on April 26, 2017 (GMT -0400)
Muskegon County

Weather History for KMKG - May, 2013

Change the Weather History Date:

Friday, May 17, 2013

  Actual Average Record
Temperature  
Mean Temperature 61 °F 57 °F  
Max Temperature 67 °F 67 °F 88 °F (1962)
Min Temperature 55 °F 47 °F 28 °F (1983)
Degree Days  
Heating Degree Days 4 9  
Month to date heating degree days 109 183  
Since 1 July heating degree days 6199 6401  
Cooling Degree Days 0 1  
Month to date cooling degree days 10 9  
Year to date cooling degree days 14 13  
Growing Degree Days 10 (Base 50)    
Moisture  
Dew Point 40 °F    
Average Humidity 43    
Maximum Humidity 55    
Minimum Humidity 31    
Precipitation  
Precipitation T in 0.11 in 1.22 in (2000)
Month to date precipitation 1.05 1.76  
Year to date precipitation 19.17 10.78  
Snow  
Snow 0.00 in 0.00 in 0.00 in ()
Month to date snowfall 0.0 0.0  
Since 1 July snowfall 98.6 93.7  
Snow Depth 0.00 in    
Sea Level Pressure  
Sea Level Pressure 30.09 in    
Wind  
Wind Speed 11 mph (East)    
Max Wind Speed 18 mph    
Max Gust Speed 25 mph    
Visibility 10 miles    
Events      
T = Trace of Precipitation, MM = Missing Value Source: NWS Daily Summary

Daily Weather History Graph

Daily Weather History Graph

Search for Another Location

Airport or City:

Trip Planner

Search our weather history database for the weather conditions in past years. The results will help you decide how hot, cold, wet, or windy it might be!

Date:

Astronomy

May. 17, 2013 Rise Set
Actual Time 6:18 AM EDT 9:04 PM EDT
Civil Twilight 5:45 AM EDT 9:37 PM EDT
Nautical Twilight 5:04 AM EDT 10:19 PM EDT
Astronomical Twilight 4:16 AM EDT 11:07 PM EDT
Moon 12:55 PM EDT (5/17) 1:52 AM EDT (5/17)
Length of Visible Light 15h 51m
Length of Day
14h 45m
Waxing Crescent, 45% of the Moon is Illuminated
May 17
Waxing Crescent
May 18
First Quarter
May 25
Full
May 31
Last Quarter
Jun 8
New

Hourly Weather History & Observations

Time (EDT) Temp. Dew Point Humidity Pressure Visibility Wind Dir Wind Speed Gust Speed Precip Events Conditions
12:55 AM 64.0 °F 33.1 °F 31% 30.02 in 10.0 mi East 9.2 mph - N/A   Overcast
1:55 AM 63.0 °F 32.0 °F 31% 30.02 in 10.0 mi East 9.2 mph - N/A   Overcast
2:55 AM 61.0 °F 37.0 °F 41% 30.02 in 10.0 mi ENE 10.4 mph - N/A   Overcast
3:55 AM 57.0 °F 39.9 °F 53% 30.03 in 10.0 mi East 11.5 mph - N/A   Mostly Cloudy
4:55 AM 55.9 °F 39.0 °F 53% 30.04 in 10.0 mi East 11.5 mph - N/A   Overcast
5:55 AM 55.0 °F 37.9 °F 53% 30.05 in 10.0 mi East 10.4 mph - N/A   Scattered Clouds
6:55 AM 55.0 °F 37.9 °F 53% 30.06 in 10.0 mi East 10.4 mph - N/A   Overcast
7:55 AM 55.4 °F 39.2 °F 54% 30.09 in 10.0 mi East 10.4 mph - N/A   Overcast
8:55 AM 59.0 °F 39.9 °F 49% 30.09 in 10.0 mi East 13.8 mph - N/A   Mostly Cloudy
9:55 AM 62.1 °F 39.9 °F 44% 30.11 in 10.0 mi East 10.4 mph - N/A   Overcast
10:55 AM 61.0 °F 41.0 °F 48% 30.12 in 10.0 mi East 12.7 mph - N/A   Overcast
11:55 AM 62.1 °F 41.0 °F 46% 30.13 in 10.0 mi NE 10.4 mph - N/A   Overcast
12:55 PM 60.1 °F 42.1 °F 51% 30.12 in 10.0 mi ENE 12.7 mph - 0.00 in   Overcast
1:55 PM 63.0 °F 42.1 °F 46% 30.11 in 10.0 mi ENE 13.8 mph - N/A   Mostly Cloudy
2:55 PM 64.4 °F 42.8 °F 45% 30.10 in 10.0 mi ENE 15.0 mph - N/A   Overcast
3:55 PM 66.0 °F 41.0 °F 40% 30.10 in 10.0 mi East 12.7 mph - N/A   Overcast
4:55 PM 64.9 °F 41.0 °F 42% 30.11 in 10.0 mi NE 5.8 mph - N/A   Overcast
5:55 PM 63.0 °F 44.1 °F 50% 30.12 in 10.0 mi NE 10.4 mph - N/A   Overcast
6:55 PM 61.0 °F 43.0 °F 52% 30.12 in 10.0 mi NE 9.2 mph - 0.00 in   Overcast
7:55 PM 61.0 °F 44.1 °F 54% 30.10 in 10.0 mi East 11.5 mph - 0.00 in   Overcast
8:55 PM 61.0 °F 43.0 °F 52% 30.10 in 10.0 mi East 13.8 mph 18.4 mph N/A   Overcast
9:55 PM 61.0 °F 43.0 °F 52% 30.09 in 10.0 mi East 11.5 mph - N/A   Overcast
10:55 PM 61.0 °F 43.0 °F 52% 30.10 in 10.0 mi East 10.4 mph - N/A   Overcast
11:55 PM 60.1 °F 44.1 °F 55% 30.13 in 10.0 mi East 9.2 mph - N/A   Overcast